MSR69 OERK-HECA

Flight info

Callsign MSR69
Flight time 2h 20m
Altitude 40000
Route IVONU M321 HLF N316 RAGPU L677 CVO
Aircraft A359/H-SDE2E3GHIJ3J4J5LM1ORWXY/LB1D1

Departure

Time 2026-04-29 00:12
Airport King Khalid International Airport (OERK)

Arrival

Time 2026-04-29 02:32
Airport Cairo International Airport (HECA)
Time Latitude Longitude Altitude Speed Heading
2026-04-28 23:46 24.95887 46.70559 2043 ft 0 kts 265°
2026-04-29 00:00 24.95885 46.70538 2046 ft 1 kts 85°
2026-04-29 00:00 24.95887 46.70555 2036 ft 3 kts 84°
2026-04-29 00:01 24.95889 46.70577 2036 ft 3 kts 83°
2026-04-29 00:01 24.95891 46.70599 2041 ft 3 kts 84°
2026-04-29 00:01 24.95891 46.70597 2042 ft 0 kts 84°
2026-04-29 00:04 24.95891 46.70598 2042 ft 0 kts 84°
2026-04-29 00:04 24.95891 46.70600 2041 ft 4 kts 84°
2026-04-29 00:04 24.95885 46.70659 2041 ft 9 kts 117°
2026-04-29 00:04 24.95857 46.70725 2042 ft 10 kts 96°
2026-04-29 00:05 24.95878 46.70801 2044 ft 11 kts 63°
2026-04-29 00:05 24.95919 46.70881 2043 ft 13 kts 59°
2026-04-29 00:05 24.95917 46.70963 2043 ft 11 kts 121°
2026-04-29 00:05 24.95857 46.71014 2042 ft 12 kts 147°
2026-04-29 00:06 24.95782 46.71063 2042 ft 13 kts 150°
2026-04-29 00:06 24.95727 46.71098 2044 ft 14 kts 150°
2026-04-29 00:06 24.95636 46.71155 2046 ft 16 kts 150°
2026-04-29 00:06 24.95535 46.71219 2046 ft 17 kts 150°
2026-04-29 00:07 24.95439 46.71280 2043 ft 15 kts 150°
2026-04-29 00:07 24.95357 46.71332 2044 ft 13 kts 150°
2026-04-29 00:07 24.95280 46.71381 2045 ft 14 kts 150°
2026-04-29 00:07 24.95193 46.71435 2045 ft 15 kts 150°
2026-04-29 00:08 24.95097 46.71496 2046 ft 17 kts 150°
2026-04-29 00:08 24.94993 46.71562 2042 ft 18 kts 150°
2026-04-29 00:08 24.94880 46.71632 2047 ft 19 kts 150°
2026-04-29 00:08 24.94760 46.71709 2043 ft 21 kts 150°
2026-04-29 00:09 24.94633 46.71789 2047 ft 22 kts 150°
2026-04-29 00:09 24.94513 46.71865 2046 ft 19 kts 150°
2026-04-29 00:09 24.94396 46.71938 2048 ft 15 kts 150°
2026-04-29 00:09 24.94320 46.71992 2048 ft 13 kts 133°
2026-04-29 00:10 24.94316 46.72083 2045 ft 12 kts 65°
2026-04-29 00:10 24.94359 46.72172 2042 ft 14 kts 62°
2026-04-29 00:10 24.94414 46.72260 2044 ft 10 kts 32°
2026-04-29 00:10 24.94442 46.72255 2047 ft 3 kts 329°
2026-04-29 00:11 24.94477 46.72230 2046 ft 14 kts 329°
2026-04-29 00:11 24.94573 46.72170 2047 ft 21 kts 330°
2026-04-29 00:11 24.95593 46.71525 2044 ft 143 kts 330°
2026-04-29 00:12 24.96595 46.70892 2154 ft 181 kts 331°
2026-04-29 00:12 24.97690 46.70190 2768 ft 184 kts 331°
2026-04-29 00:12 24.98805 46.69447 3379 ft 191 kts 332°
2026-04-29 00:12 25.00089 46.68887 3698 ft 207 kts 348°
2026-04-29 00:13 25.01545 46.68450 3994 ft 229 kts 348°
2026-04-29 00:13 25.03129 46.67930 4283 ft 253 kts 346°
2026-04-29 00:13 25.04884 46.67291 4788 ft 268 kts 344°
2026-04-29 00:13 25.06639 46.66574 5387 ft 277 kts 338°
2026-04-29 00:14 25.08190 46.65284 6040 ft 286 kts 308°
2026-04-29 00:14 25.08947 46.63275 6746 ft 287 kts 274°
2026-04-29 00:14 25.08791 46.61118 7579 ft 281 kts 257°
2026-04-29 00:14 25.08402 46.59009 8357 ft 281 kts 256°
2026-04-29 00:15 25.08003 46.56902 8839 ft 280 kts 256°
2026-04-29 00:15 25.07696 46.54774 8999 ft 282 kts 263°
2026-04-29 00:15 25.07602 46.52607 9012 ft 284 kts 266°
2026-04-29 00:15 25.07558 46.50429 9010 ft 284 kts 266°
2026-04-29 00:16 25.07519 46.48248 9050 ft 284 kts 266°
2026-04-29 00:16 25.07478 46.46067 9415 ft 286 kts 266°
2026-04-29 00:16 25.07436 46.43877 10234 ft 285 kts 266°
2026-04-29 00:16 25.07389 46.41641 10773 ft 301 kts 266°
2026-04-29 00:17 25.07337 46.39257 11116 ft 320 kts 266°
2026-04-29 00:17 25.07283 46.36733 11444 ft 338 kts 266°
2026-04-29 00:17 25.07227 46.34093 11890 ft 350 kts 266°
2026-04-29 00:17 25.07174 46.31394 12567 ft 353 kts 266°
2026-04-29 00:18 25.07118 46.28681 13321 ft 355 kts 266°
2026-04-29 00:18 25.07057 46.25950 14030 ft 357 kts 266°
2026-04-29 00:18 25.06995 46.23205 14673 ft 359 kts 266°
2026-04-29 00:18 25.06932 46.20441 15337 ft 361 kts 266°
2026-04-29 00:19 25.06869 46.17667 15974 ft 364 kts 266°
2026-04-29 00:19 25.06806 46.14867 16629 ft 366 kts 266°
2026-04-29 00:19 25.06741 46.12056 17297 ft 368 kts 266°
2026-04-29 00:19 25.06674 46.09231 17981 ft 370 kts 266°
2026-04-29 00:20 25.06607 46.06391 18570 ft 372 kts 265°
2026-04-29 00:20 25.06539 46.03529 19128 ft 375 kts 265°
2026-04-29 00:20 25.06470 46.00645 19718 ft 377 kts 265°
2026-04-29 00:20 25.06400 45.97749 20342 ft 379 kts 265°
2026-04-29 00:21 25.06329 45.94835 20925 ft 381 kts 265°
2026-04-29 00:21 25.06255 45.91896 21470 ft 385 kts 265°
2026-04-29 00:21 25.06182 45.88937 22045 ft 387 kts 265°
2026-04-29 00:21 25.06109 45.85957 22622 ft 390 kts 264°
2026-04-29 00:22 25.06034 45.82955 23197 ft 393 kts 264°
2026-04-29 00:22 25.05957 45.79930 23740 ft 396 kts 264°
2026-04-29 00:22 25.05880 45.76889 24257 ft 398 kts 264°
2026-04-29 00:22 25.05802 45.73831 24765 ft 400 kts 265°
2026-04-29 00:23 25.05723 45.70764 25293 ft 401 kts 265°
2026-04-29 00:23 25.05752 45.67673 25835 ft 405 kts 270°
2026-04-29 00:23 25.06094 45.64571 26350 ft 409 kts 274°
2026-04-29 00:23 25.06570 45.61468 26903 ft 411 kts 276°
2026-04-29 00:24 25.07097 45.58406 27426 ft 413 kts 277°
2026-04-29 00:24 25.07655 45.55290 27918 ft 415 kts 277°
2026-04-29 00:24 25.08216 45.52159 28419 ft 417 kts 277°
2026-04-29 00:24 25.08771 45.49015 28911 ft 418 kts 277°
2026-04-29 00:25 25.09320 45.45858 29372 ft 420 kts 277°
2026-04-29 00:25 25.09863 45.42683 29856 ft 422 kts 277°
2026-04-29 00:25 25.10404 45.39496 30253 ft 424 kts 277°
2026-04-29 00:25 25.10943 45.36295 30576 ft 426 kts 277°
2026-04-29 00:26 25.11485 45.33073 30914 ft 428 kts 277°
2026-04-29 00:26 25.12029 45.29835 31234 ft 430 kts 277°
2026-04-29 00:26 25.12575 45.26584 31589 ft 431 kts 276°
2026-04-29 00:26 25.13121 45.23330 31962 ft 432 kts 276°
2026-04-29 00:27 25.13668 45.20070 32265 ft 433 kts 276°
2026-04-29 00:27 25.14216 45.16793 32532 ft 435 kts 276°
2026-04-29 00:27 25.14766 45.13501 32811 ft 437 kts 276°
2026-04-29 00:27 25.15316 45.10208 33230 ft 435 kts 276°
2026-04-29 00:28 25.15863 45.06938 33676 ft 432 kts 276°
2026-04-29 00:28 25.16406 45.03684 34080 ft 430 kts 276°
2026-04-29 00:28 25.16947 45.00437 34384 ft 430 kts 276°
2026-04-29 00:28 25.17479 44.97228 34605 ft 431 kts 276°
2026-04-29 00:29 25.18018 44.93970 34868 ft 432 kts 276°
2026-04-29 00:29 25.18556 44.90714 35159 ft 431 kts 276°
2026-04-29 00:29 25.19095 44.87455 35443 ft 431 kts 276°
2026-04-29 00:29 25.19632 44.84201 35730 ft 431 kts 276°
2026-04-29 00:30 25.20167 44.80951 36007 ft 431 kts 276°
2026-04-29 00:30 25.20703 44.77698 36275 ft 431 kts 276°
2026-04-29 00:30 25.21237 44.74447 36538 ft 431 kts 276°
2026-04-29 00:30 25.21772 44.71190 36803 ft 430 kts 276°
2026-04-29 00:31 25.22304 44.67940 37064 ft 430 kts 276°
2026-04-29 00:31 25.22837 44.64690 37317 ft 430 kts 276°
2026-04-29 00:31 25.23368 44.61438 37590 ft 430 kts 276°
2026-04-29 00:31 25.23898 44.58192 37894 ft 428 kts 276°
2026-04-29 00:32 25.24425 44.54963 38164 ft 428 kts 276°
2026-04-29 00:32 25.24951 44.51732 38400 ft 427 kts 276°
2026-04-29 00:32 25.25480 44.48503 38620 ft 427 kts 277°
2026-04-29 00:32 25.26060 44.45279 38811 ft 428 kts 278°
2026-04-29 00:33 25.26679 44.42062 38987 ft 428 kts 278°
2026-04-29 00:33 25.27310 44.38851 39208 ft 427 kts 278°
2026-04-29 00:33 25.27939 44.35648 39395 ft 427 kts 278°
2026-04-29 00:33 25.28562 44.32441 39541 ft 427 kts 278°
2026-04-29 00:34 25.29179 44.29232 39716 ft 427 kts 278°
2026-04-29 00:34 25.29789 44.26026 39875 ft 427 kts 277°
2026-04-29 00:34 25.30398 44.22812 39949 ft 428 kts 277°
2026-04-29 00:35 25.31600 44.16433 39955 ft 426 kts 277°
2026-04-29 00:35 25.32812 44.09985 39960 ft 426 kts 277°
2026-04-29 00:36 25.34007 44.03616 39960 ft 426 kts 277°
2026-04-29 00:36 25.35206 43.97213 39963 ft 425 kts 277°
2026-04-29 00:37 25.36401 43.90813 39965 ft 425 kts 277°
2026-04-29 00:37 25.37593 43.84417 39963 ft 425 kts 277°
2026-04-29 00:38 25.38780 43.78026 39965 ft 424 kts 277°
2026-04-29 00:38 25.39965 43.71635 39966 ft 424 kts 277°
2026-04-29 00:39 25.41146 43.65248 39968 ft 424 kts 277°
2026-04-29 00:39 25.42324 43.58862 39969 ft 423 kts 277°
2026-04-29 00:40 25.43496 43.52490 39971 ft 423 kts 277°
2026-04-29 00:40 25.44665 43.46117 39971 ft 423 kts 277°
2026-04-29 00:41 25.45832 43.39743 39970 ft 423 kts 277°
2026-04-29 00:41 25.46996 43.33366 39969 ft 423 kts 277°
2026-04-29 00:42 25.48158 43.26986 39970 ft 423 kts 277°
2026-04-29 00:42 25.49316 43.20608 39970 ft 423 kts 277°
2026-04-29 00:43 25.50472 43.14227 39965 ft 423 kts 276°
2026-04-29 00:43 25.51618 43.07885 39966 ft 423 kts 276°
2026-04-29 00:44 25.52769 43.01497 39970 ft 424 kts 277°
2026-04-29 00:44 25.53926 42.95094 39963 ft 424 kts 277°
2026-04-29 00:45 25.55074 42.88690 39964 ft 424 kts 277°
2026-04-29 00:45 25.56220 42.82286 39959 ft 424 kts 276°
2026-04-29 00:46 25.57345 42.75887 39964 ft 423 kts 276°
2026-04-29 00:46 25.58489 42.69490 39963 ft 424 kts 277°
2026-04-29 00:47 25.59638 42.63081 39964 ft 424 kts 277°
2026-04-29 00:47 25.60777 42.56676 39963 ft 423 kts 276°
2026-04-29 00:48 25.61906 42.50289 39962 ft 422 kts 276°
2026-04-29 00:48 25.63033 42.43898 39963 ft 422 kts 276°
2026-04-29 00:49 25.64155 42.37514 39962 ft 422 kts 276°
2026-04-29 00:49 25.65274 42.31135 39961 ft 422 kts 276°
2026-04-29 00:50 25.66511 42.24776 39962 ft 424 kts 281°
2026-04-29 00:50 25.68141 42.18481 39971 ft 425 kts 281°
2026-04-29 00:51 25.69834 42.12208 39966 ft 425 kts 281°
2026-04-29 00:51 25.71532 42.05941 39968 ft 424 kts 281°
2026-04-29 00:52 25.73222 41.99671 39971 ft 424 kts 281°
2026-04-29 00:52 25.74903 41.93404 39973 ft 423 kts 281°
2026-04-29 00:53 25.76574 41.87159 39963 ft 422 kts 281°
2026-04-29 00:53 25.78230 41.80957 39983 ft 422 kts 281°
2026-04-29 00:54 25.79894 41.74716 40103 ft 421 kts 281°
2026-04-29 00:54 25.80723 41.71605 40294 ft 420 kts 281°
2026-04-29 00:54 25.81550 41.68498 40463 ft 419 kts 281°
2026-04-29 00:54 25.82374 41.65397 40598 ft 419 kts 281°
2026-04-29 00:55 25.83197 41.62292 40739 ft 419 kts 281°
2026-04-29 00:55 25.84577 41.57084 40954 ft 420 kts 281°
2026-04-29 00:56 25.86211 41.50913 40980 ft 419 kts 281°
2026-04-29 00:56 25.87850 41.44714 40979 ft 418 kts 281°
2026-04-29 00:57 25.89482 41.38522 40984 ft 418 kts 281°
2026-04-29 00:57 25.91112 41.32326 40991 ft 418 kts 281°
2026-04-29 00:58 25.92739 41.26133 40988 ft 417 kts 281°
2026-04-29 00:58 25.94362 41.19943 40980 ft 418 kts 281°
2026-04-29 00:59 25.95987 41.13730 40990 ft 419 kts 281°
2026-04-29 00:59 25.97611 41.07515 40991 ft 419 kts 281°
2026-04-29 01:00 25.99220 41.01348 40991 ft 418 kts 281°
2026-04-29 01:00 26.00836 40.95135 40996 ft 418 kts 281°
2026-04-29 01:01 26.02449 40.88924 41006 ft 418 kts 281°
2026-04-29 01:01 26.04056 40.82730 40998 ft 417 kts 280°
2026-04-29 01:02 26.05658 40.76537 40991 ft 417 kts 280°
2026-04-29 01:02 26.07257 40.70345 41000 ft 416 kts 280°
2026-04-29 01:03 26.08853 40.64150 40996 ft 416 kts 280°
2026-04-29 01:03 26.10447 40.57953 40996 ft 417 kts 280°
2026-04-29 01:04 26.12028 40.51792 40999 ft 417 kts 280°
2026-04-29 01:04 26.13617 40.45591 41006 ft 416 kts 280°
2026-04-29 01:05 26.15200 40.39409 41000 ft 415 kts 280°
2026-04-29 01:05 26.16779 40.33235 40999 ft 415 kts 280°
2026-04-29 01:06 26.18350 40.27063 41001 ft 414 kts 280°
2026-04-29 01:06 26.19917 40.20890 40998 ft 414 kts 280°
2026-04-29 01:07 26.21477 40.14734 40998 ft 413 kts 280°
2026-04-29 01:07 26.23034 40.08583 40996 ft 413 kts 280°
2026-04-29 01:08 26.24578 40.02471 41008 ft 413 kts 280°
2026-04-29 01:08 26.26129 39.96324 40993 ft 412 kts 280°
2026-04-29 01:09 26.27677 39.90172 40990 ft 412 kts 280°
2026-04-29 01:09 26.29221 39.84028 40984 ft 412 kts 279°
2026-04-29 01:10 26.30761 39.77882 40991 ft 412 kts 279°
2026-04-29 01:10 26.32299 39.71736 40977 ft 412 kts 279°
2026-04-29 01:11 26.33833 39.65591 40971 ft 412 kts 279°
2026-04-29 01:11 26.35367 39.59438 40975 ft 412 kts 279°
2026-04-29 01:12 26.36897 39.53287 40972 ft 411 kts 279°
2026-04-29 01:12 26.38422 39.47142 40966 ft 411 kts 279°
2026-04-29 01:13 26.39947 39.40988 40966 ft 411 kts 279°
2026-04-29 01:13 26.41468 39.34836 40985 ft 411 kts 279°
2026-04-29 01:14 26.42975 39.28734 40959 ft 411 kts 279°
2026-04-29 01:14 26.44526 39.22596 40960 ft 411 kts 280°
2026-04-29 01:15 26.46164 39.16485 40960 ft 411 kts 281°
2026-04-29 01:15 26.47808 39.10370 40970 ft 411 kts 280°
2026-04-29 01:16 26.49432 39.04265 40962 ft 410 kts 280°
2026-04-29 01:16 26.51044 38.98164 40958 ft 410 kts 280°
2026-04-29 01:17 26.52651 38.92060 40950 ft 410 kts 280°
2026-04-29 01:17 26.54256 38.85956 40958 ft 409 kts 280°
2026-04-29 01:18 26.55857 38.79862 40953 ft 409 kts 280°
2026-04-29 01:18 26.58239 38.70767 40945 ft 408 kts 280°
2026-04-29 01:19 26.59830 38.64675 40955 ft 408 kts 280°
2026-04-29 01:19 26.61417 38.58591 40945 ft 408 kts 280°
2026-04-29 01:20 26.63002 38.52503 40941 ft 408 kts 280°
2026-04-29 01:20 26.64583 38.46418 40939 ft 408 kts 280°
2026-04-29 01:21 26.66162 38.40329 40938 ft 408 kts 280°
2026-04-29 01:21 26.67738 38.34239 40933 ft 408 kts 280°
2026-04-29 01:22 26.69312 38.28149 40934 ft 408 kts 280°
2026-04-29 01:22 26.70883 38.22055 40938 ft 408 kts 280°
2026-04-29 01:23 26.72452 38.15957 40937 ft 407 kts 280°
2026-04-29 01:23 26.74015 38.09875 40922 ft 407 kts 279°
2026-04-29 01:24 26.75565 38.03828 40933 ft 407 kts 279°
2026-04-29 01:24 26.77122 37.97739 40938 ft 407 kts 279°
2026-04-29 01:25 26.78678 37.91644 40926 ft 408 kts 280°
2026-04-29 01:25 26.80234 37.85536 40933 ft 408 kts 280°
2026-04-29 01:26 26.81790 37.79421 40935 ft 408 kts 280°
2026-04-29 01:26 26.83341 37.73309 40940 ft 408 kts 279°
2026-04-29 01:27 26.84890 37.67191 40950 ft 409 kts 279°
2026-04-29 01:27 26.86441 37.61069 40952 ft 409 kts 279°
2026-04-29 01:28 26.87986 37.54945 40949 ft 409 kts 279°
2026-04-29 01:28 26.89531 37.48815 40959 ft 409 kts 279°
2026-04-29 01:29 26.91070 37.42688 40963 ft 409 kts 279°
2026-04-29 01:29 26.92607 37.36558 40958 ft 409 kts 279°
2026-04-29 01:30 26.94131 37.30466 40951 ft 409 kts 279°
2026-04-29 01:30 26.95665 37.24331 40962 ft 408 kts 279°
2026-04-29 01:31 26.97193 37.18204 40949 ft 408 kts 279°
2026-04-29 01:31 26.98718 37.12075 40946 ft 408 kts 279°
2026-04-29 01:32 27.00241 37.05946 40944 ft 408 kts 279°
2026-04-29 01:32 27.01762 36.99811 40942 ft 408 kts 279°
2026-04-29 01:33 27.03280 36.93675 40929 ft 408 kts 279°
2026-04-29 01:33 27.04793 36.87532 40927 ft 408 kts 279°
2026-04-29 01:34 27.06306 36.81382 40930 ft 409 kts 279°
2026-04-29 01:34 27.07809 36.75278 40932 ft 409 kts 279°
2026-04-29 01:35 27.09320 36.69131 40925 ft 408 kts 279°
2026-04-29 01:35 27.10825 36.62985 40919 ft 408 kts 279°
2026-04-29 01:36 27.12327 36.56837 40923 ft 408 kts 279°
2026-04-29 01:36 27.13829 36.50686 40912 ft 409 kts 279°
2026-04-29 01:37 27.15327 36.44530 40910 ft 409 kts 279°
2026-04-29 01:37 27.16819 36.38375 40910 ft 409 kts 279°
2026-04-29 01:38 27.18310 36.32220 40906 ft 409 kts 279°
2026-04-29 01:38 27.19799 36.26062 40905 ft 409 kts 279°
2026-04-29 01:39 27.21284 36.19901 40901 ft 409 kts 279°
2026-04-29 01:39 27.22752 36.13770 40900 ft 409 kts 279°
2026-04-29 01:40 27.24237 36.07601 40904 ft 409 kts 279°
2026-04-29 01:40 27.25722 36.01435 40900 ft 409 kts 279°
2026-04-29 01:41 27.27200 35.95262 40896 ft 409 kts 279°
2026-04-29 01:41 27.28672 35.89094 40896 ft 409 kts 279°
2026-04-29 01:42 27.30141 35.82924 40897 ft 409 kts 279°
2026-04-29 01:42 27.31609 35.76750 40896 ft 409 kts 279°
2026-04-29 01:43 27.33075 35.70572 40894 ft 409 kts 279°
2026-04-29 01:43 27.34538 35.64393 40887 ft 409 kts 279°
2026-04-29 01:44 27.35999 35.58210 40900 ft 409 kts 279°
2026-04-29 01:44 27.37447 35.52069 40889 ft 409 kts 279°
2026-04-29 01:45 27.38902 35.45885 40892 ft 409 kts 279°
2026-04-29 01:45 27.40354 35.39702 40887 ft 408 kts 279°
2026-04-29 01:46 27.41801 35.33522 40889 ft 408 kts 279°
2026-04-29 01:46 27.43246 35.27342 40890 ft 408 kts 279°
2026-04-29 01:47 27.44689 35.21154 40897 ft 408 kts 279°
2026-04-29 01:47 27.46127 35.14977 40890 ft 408 kts 279°
2026-04-29 01:48 27.47563 35.08794 40892 ft 408 kts 279°
2026-04-29 01:48 27.48995 35.02612 40895 ft 408 kts 279°
2026-04-29 01:49 27.50654 34.96477 40897 ft 414 kts 286°
2026-04-29 01:49 27.53569 34.90783 40894 ft 429 kts 300°
2026-04-29 01:50 27.57719 34.85879 40895 ft 439 kts 307°
2026-04-29 01:50 27.62201 34.81168 40900 ft 441 kts 308°
2026-04-29 01:51 27.66708 34.76480 40900 ft 441 kts 307°
2026-04-29 01:51 27.71193 34.71764 40911 ft 440 kts 307°
2026-04-29 01:52 27.74905 34.67832 40906 ft 441 kts 307°
2026-04-29 01:52 27.79376 34.63081 40918 ft 442 kts 307°
2026-04-29 01:53 27.83857 34.58314 40910 ft 443 kts 307°
2026-04-29 01:53 27.88345 34.53538 40912 ft 443 kts 307°
2026-04-29 01:54 27.92832 34.48759 40910 ft 443 kts 307°
2026-04-29 01:54 27.97322 34.43976 40913 ft 443 kts 308°
2026-04-29 01:55 28.01504 34.38948 40910 ft 436 kts 302°
2026-04-29 01:55 28.05378 34.33690 40912 ft 434 kts 301°
2026-04-29 01:56 28.09196 34.28388 40914 ft 434 kts 301°
2026-04-29 01:56 28.13011 34.23080 40947 ft 435 kts 301°
2026-04-29 01:57 28.16836 34.17762 40965 ft 436 kts 302°
2026-04-29 01:57 28.20655 34.12457 40956 ft 437 kts 302°
2026-04-29 01:58 28.24508 34.07107 40987 ft 438 kts 302°
2026-04-29 01:58 28.28353 34.01754 40980 ft 438 kts 302°
2026-04-29 01:59 28.32209 33.96368 40992 ft 440 kts 302°
2026-04-29 01:59 28.36058 33.91000 40996 ft 437 kts 302°
2026-04-29 02:00 28.39894 33.85647 40996 ft 437 kts 302°
2026-04-29 02:00 28.43721 33.80289 40995 ft 437 kts 302°
2026-04-29 02:01 28.47545 33.74929 40992 ft 437 kts 302°
2026-04-29 02:01 28.51367 33.69567 40990 ft 437 kts 302°
2026-04-29 02:02 28.55193 33.64197 40996 ft 436 kts 302°
2026-04-29 02:02 28.58995 33.58865 40997 ft 437 kts 302°
2026-04-29 02:03 28.62823 33.53489 40994 ft 437 kts 302°
2026-04-29 02:03 28.66655 33.48104 40996 ft 437 kts 302°
2026-04-29 02:04 28.70469 33.42715 40999 ft 437 kts 302°
2026-04-29 02:04 28.74283 33.37318 41000 ft 437 kts 302°
2026-04-29 02:05 28.78098 33.31919 40996 ft 437 kts 302°
2026-04-29 02:05 28.81912 33.26517 40998 ft 438 kts 302°
2026-04-29 02:06 28.85728 33.21104 40993 ft 437 kts 302°
2026-04-29 02:06 28.89535 33.15697 41009 ft 437 kts 302°
2026-04-29 02:07 28.93310 33.10328 40996 ft 436 kts 302°
2026-04-29 02:07 28.95209 33.07624 40849 ft 436 kts 302°
2026-04-29 02:07 28.97107 33.04920 40603 ft 436 kts 302°
2026-04-29 02:08 28.99000 33.02221 40379 ft 436 kts 302°
2026-04-29 02:08 29.00896 32.99516 40155 ft 436 kts 302°
2026-04-29 02:08 29.02791 32.96811 39923 ft 436 kts 303°
2026-04-29 02:08 29.04686 32.94105 39698 ft 436 kts 303°
2026-04-29 02:09 29.06581 32.91396 39471 ft 436 kts 303°
2026-04-29 02:09 29.08474 32.88688 39254 ft 436 kts 303°
2026-04-29 02:09 29.10369 32.85977 39034 ft 436 kts 303°
2026-04-29 02:09 29.12259 32.83270 38816 ft 436 kts 303°
2026-04-29 02:10 29.14149 32.80562 38586 ft 436 kts 303°
2026-04-29 02:10 29.16037 32.77855 38314 ft 436 kts 303°
2026-04-29 02:10 29.17927 32.75143 38055 ft 436 kts 303°
2026-04-29 02:10 29.19818 32.72428 37795 ft 436 kts 303°
2026-04-29 02:11 29.21711 32.69707 37550 ft 437 kts 303°
2026-04-29 02:11 29.23601 32.66991 37288 ft 437 kts 303°
2026-04-29 02:11 29.25495 32.64266 37046 ft 437 kts 303°
2026-04-29 02:11 29.27347 32.61510 36805 ft 435 kts 300°
2026-04-29 02:12 29.28822 32.58506 36553 ft 431 kts 292°
2026-04-29 02:12 29.30055 32.55383 36315 ft 431 kts 291°
2026-04-29 02:12 29.31218 32.52216 36073 ft 431 kts 290°
2026-04-29 02:12 29.32327 32.49075 35846 ft 431 kts 290°
2026-04-29 02:13 29.33438 32.45880 35610 ft 432 kts 290°
2026-04-29 02:13 29.34547 32.42681 35384 ft 432 kts 290°
2026-04-29 02:13 29.35660 32.39478 35151 ft 433 kts 290°
2026-04-29 02:13 29.36779 32.36273 34923 ft 433 kts 290°
2026-04-29 02:14 29.37903 32.33064 34700 ft 434 kts 291°
2026-04-29 02:14 29.39027 32.29861 34188 ft 433 kts 291°
2026-04-29 02:14 29.40151 32.26656 33317 ft 434 kts 291°
2026-04-29 02:14 29.41279 32.23440 32446 ft 435 kts 292°
2026-04-29 02:15 29.42408 32.20217 31583 ft 436 kts 292°
2026-04-29 02:15 29.43542 32.16980 30686 ft 438 kts 293°
2026-04-29 02:15 29.44680 32.13729 29719 ft 440 kts 294°
2026-04-29 02:15 29.45815 32.10488 29045 ft 434 kts 294°
2026-04-29 02:16 29.46929 32.07296 28444 ft 428 kts 293°
2026-04-29 02:16 29.48031 32.04139 27810 ft 423 kts 294°
2026-04-29 02:16 29.49118 32.01021 27177 ft 419 kts 293°
2026-04-29 02:16 29.50194 31.97934 26558 ft 415 kts 293°
2026-04-29 02:17 29.51261 31.94877 25947 ft 411 kts 293°
2026-04-29 02:17 29.52305 31.91885 25340 ft 408 kts 293°
2026-04-29 02:17 29.53352 31.88874 24728 ft 405 kts 292°
2026-04-29 02:17 29.54391 31.85877 24127 ft 402 kts 292°
2026-04-29 02:18 29.55423 31.82899 23481 ft 401 kts 292°
2026-04-29 02:18 29.56448 31.79940 22818 ft 397 kts 292°
2026-04-29 02:18 29.57463 31.77002 22196 ft 393 kts 292°
2026-04-29 02:18 29.58465 31.74099 21589 ft 389 kts 292°
2026-04-29 02:19 29.59459 31.71222 20961 ft 386 kts 292°
2026-04-29 02:19 29.60461 31.68321 20275 ft 396 kts 292°
2026-04-29 02:19 29.61485 31.65361 19718 ft 400 kts 292°
2026-04-29 02:19 29.62509 31.62392 19136 ft 399 kts 292°
2026-04-29 02:20 29.63527 31.59437 18566 ft 396 kts 292°
2026-04-29 02:20 29.64535 31.56507 17940 ft 393 kts 292°
2026-04-29 02:20 29.65536 31.53595 17211 ft 391 kts 292°
2026-04-29 02:20 29.66529 31.50703 16493 ft 387 kts 292°
2026-04-29 02:21 29.67514 31.47837 15792 ft 384 kts 292°
2026-04-29 02:21 29.68490 31.44991 15109 ft 380 kts 292°
2026-04-29 02:21 29.69455 31.42177 14444 ft 377 kts 292°
2026-04-29 02:21 29.70413 31.39380 13786 ft 374 kts 292°
2026-04-29 02:22 29.71361 31.36610 13050 ft 371 kts 292°
2026-04-29 02:22 29.72300 31.33858 12331 ft 368 kts 292°
2026-04-29 02:22 29.73234 31.31129 11628 ft 365 kts 292°
2026-04-29 02:22 29.74340 31.28541 10936 ft 352 kts 299°
2026-04-29 02:23 29.75513 31.26164 10272 ft 332 kts 301°
2026-04-29 02:23 29.76670 31.23949 9744 ft 312 kts 302°
2026-04-29 02:23 29.77771 31.21906 9274 ft 290 kts 303°
2026-04-29 02:23 29.78813 31.19998 8832 ft 273 kts 303°
2026-04-29 02:24 29.79794 31.18206 8407 ft 266 kts 302°
2026-04-29 02:24 29.80866 31.16484 7981 ft 264 kts 311°
2026-04-29 02:24 29.82272 31.15134 7559 ft 265 kts 328°
2026-04-29 02:25 29.85854 31.14725 6306 ft 269 kts 13°
2026-04-29 02:25 29.87580 31.15546 5613 ft 268 kts 24°
2026-04-29 02:25 29.89186 31.16624 4958 ft 266 kts 30°
2026-04-29 02:25 29.90721 31.17802 4281 ft 264 kts 32°
2026-04-29 02:26 29.92229 31.18993 3628 ft 261 kts 33°
2026-04-29 02:26 29.93721 31.20149 3114 ft 252 kts 32°
2026-04-29 02:26 29.95122 31.21202 2953 ft 230 kts 32°
2026-04-29 02:26 29.96397 31.22172 2802 ft 210 kts 37°
2026-04-29 02:27 29.97432 31.23209 2700 ft 191 kts 44°
2026-04-29 02:27 29.98287 31.24286 2546 ft 176 kts 47°
2026-04-29 02:27 29.99085 31.25337 2518 ft 173 kts 47°
2026-04-29 02:27 29.99830 31.26337 2492 ft 153 kts 47°
2026-04-29 02:28 30.00488 31.27214 2484 ft 138 kts 46°
2026-04-29 02:28 30.01114 31.28040 2500 ft 137 kts 47°
2026-04-29 02:28 30.01742 31.28865 2516 ft 137 kts 47°
2026-04-29 02:28 30.02371 31.29694 2499 ft 138 kts 47°
2026-04-29 02:29 30.03002 31.30532 2439 ft 139 kts 47°
2026-04-29 02:29 30.03631 31.31372 2264 ft 138 kts 47°
2026-04-29 02:29 30.04255 31.32205 2078 ft 136 kts 48°
2026-04-29 02:29 30.04874 31.33030 1898 ft 136 kts 48°
2026-04-29 02:30 30.05490 31.33852 1705 ft 135 kts 48°
2026-04-29 02:30 30.06103 31.34671 1534 ft 134 kts 48°
2026-04-29 02:30 30.06716 31.35489 1347 ft 134 kts 48°
2026-04-29 02:30 30.07327 31.36304 1175 ft 134 kts 48°
2026-04-29 02:31 30.07937 31.37118 1014 ft 133 kts 47°
2026-04-29 02:31 30.08547 31.37932 828 ft 133 kts 48°
2026-04-29 02:31 30.09151 31.38738 667 ft 133 kts 48°
2026-04-29 02:31 30.09755 31.39545 488 ft 133 kts 49°
2026-04-29 02:32 30.10354 31.40343 393 ft 125 kts 49°
2026-04-29 02:32 30.10807 31.40946 388 ft 61 kts 49°
2026-04-29 02:32 30.10948 31.41135 392 ft 23 kts 49°
2026-04-29 02:32 30.11052 31.41274 392 ft 23 kts 49°
2026-04-29 02:33 30.11159 31.41413 390 ft 23 kts 48°
2026-04-29 02:33 30.11319 31.41556 390 ft 24 kts 27°
2026-04-29 02:33 30.11408 31.41600 391 ft 0 kts 14°
2026-04-29 02:33 30.11429 31.41607 391 ft 6 kts 14°
2026-04-29 02:34 30.11447 31.41612 391 ft 3 kts 14°
2026-04-29 02:34 30.11476 31.41622 391 ft 5 kts 15°
2026-04-29 02:34 30.11517 31.41622 391 ft 6 kts 351°
2026-04-29 02:34 30.11531 31.41618 390 ft 0 kts 346°
2026-04-29 02:37 30.11549 31.41604 391 ft 5 kts 306°
2026-04-29 02:37 30.11545 31.41546 393 ft 11 kts 248°
2026-04-29 02:37 30.11497 31.41470 391 ft 13 kts 229°
2026-04-29 02:38 30.11433 31.41386 390 ft 15 kts 228°
2026-04-29 02:38 30.11358 31.41288 390 ft 17 kts 229°
2026-04-29 02:38 30.11274 31.41176 391 ft 19 kts 229°
2026-04-29 02:38 30.11181 31.41053 390 ft 19 kts 229°
2026-04-29 02:39 30.11109 31.40957 391 ft 15 kts 229°
2026-04-29 02:39 30.11054 31.40877 389 ft 11 kts 244°
2026-04-29 02:39 30.11074 31.40787 391 ft 14 kts 284°
2026-04-29 02:39 30.11020 31.40677 386 ft 18 kts 229°
2026-04-29 02:40 30.10946 31.40580 384 ft 17 kts 229°
2026-04-29 02:40 30.10870 31.40478 386 ft 17 kts 230°
2026-04-29 02:40 30.10791 31.40372 389 ft 17 kts 229°
2026-04-29 02:40 30.10712 31.40267 393 ft 17 kts 229°
2026-04-29 02:41 30.10628 31.40156 390 ft 21 kts 229°
2026-04-29 02:41 30.10532 31.40029 385 ft 17 kts 229°
2026-04-29 02:41 30.10514 31.40005 385 ft 8 kts 229°
2026-04-29 02:41 30.10483 31.39954 385 ft 9 kts 245°
2026-04-29 02:42 30.10497 31.39878 383 ft 12 kts 308°
2026-04-29 02:42 30.10586 31.39830 378 ft 17 kts 343°
2026-04-29 02:42 30.10640 31.39816 376 ft 8 kts 345°
2026-04-29 02:42 30.10702 31.39797 376 ft 7 kts 346°
2026-04-29 02:43 30.10754 31.39808 376 ft 8 kts 39°
2026-04-29 02:43 30.10774 31.39853 376 ft 0 kts 72°
2026-04-29 02:43 30.10777 31.39866 376 ft 3 kts 72°
2026-04-29 02:43 30.10778 31.39869 376 ft 0 kts 72°